This is the latest recevied weather packets stored in our database for station/object N0QV. If no packets are shown the sender has not sent any weather packets the latest 10 day(s).
| Time | Temp. | Humidity | Pressure | Rain* | Wind** | Luminosity | Snow |
|---|---|---|---|---|---|---|---|
| 1778105905 | 10° C | 38% | 1016.2 hPa | 0 mm | - | 173 W/m² | - |
| 1778105602 | 10.56° C | 40% | 1016.3 hPa | 0 mm | - | 170 W/m² | - |
| 1778105300 | 10° C | 39% | 1015.9 hPa | 0 mm | - | 471 W/m² | - |
| 1778105000 | 10° C | 38% | 1016 hPa | 0 mm | - | 171 W/m² | - |
| 1778104697 | 11.67° C | 37% | 1016.3 hPa | 0 mm | - | 163 W/m² | - |
| 1778104393 | 10.56° C | 38% | 1015.9 hPa | 0 mm | - | 425 W/m² | - |
| 1778104089 | 10.56° C | 39% | 1016 hPa | 0 mm | - | 243 W/m² | - |
| 1778103786 | 10° C | 38% | 1016 hPa | 0 mm | - | 513 W/m² | - |
| 1778103484 | 10° C | 38% | 1016 hPa | 0 mm | - | 180 W/m² | - |
| 1778103181 | 10.56° C | 39% | 1016.2 hPa | 0 mm | - | 483 W/m² | - |
| 1778102878 | 9.44° C | 40% | 1016.2 hPa | 0 mm | - | 372 W/m² | - |
| 1778102574 | 10° C | 39% | 1016 hPa | 0 mm | - | 213 W/m² | - |
| 1778102269 | 10.56° C | 39% | 1016.5 hPa | 0 mm | - | 184 W/m² | - |
| 1778101965 | 10.56° C | 39% | 1016.5 hPa | 0 mm | - | 441 W/m² | - |
| 1778101663 | 10° C | 40% | 1016.5 hPa | 0 mm | - | 299 W/m² | - |
| 1778101359 | 10.56° C | 42% | 1016.4 hPa | 0 mm | - | 280 W/m² | - |
| 1778101057 | 11.11° C | 38% | 1016.5 hPa | 0 mm | - | 214 W/m² | - |
| 1778100752 | 11.11° C | 39% | 1016.4 hPa | 0 mm | - | 618 W/m² | - |
| 1778100449 | 10° C | 40% | 1016.6 hPa | 0 mm | - | 682 W/m² | - |
| 1778100146 | 10.56° C | 39% | 1016.9 hPa | 0 mm | - | 356 W/m² | - |
| 1778099845 | 10.56° C | 43% | 1016.6 hPa | 0 mm | - | 730 W/m² | - |
| 1778099541 | 9.44° C | 42% | 1017.1 hPa | 0 mm | - | 612 W/m² | - |
| 1778099239 | 10° C | 39% | 1017 hPa | 0 mm | - | 298 W/m² | - |
| 1778098935 | 10° C | 40% | 1016.9 hPa | 0 mm | - | 478 W/m² | - |
| 1778098632 | 11.11° C | 38% | 1017.2 hPa | 0 mm | - | 572 W/m² | - |
* Rain latest hour (hover to see other rain measurements)
** Current wind speed in m/s (hover to see current wind gust speed)